Weather History for Ozona, TX

Change the Weather History Date:

Friday, January 3, 2014

  Actual Average Record
Temperature  
Mean Temperature 37 °F -  
Max Temperature 53 °F 56 °F 60 °F (2012)
Min Temperature 21 °F 30 °F 21 °F (2014)
Degree Days  
Heating Degree Days 28    
Moisture  
Dew Point 22 °F    
Average Humidity 56    
Maximum Humidity 93    
Minimum Humidity 30    
Precipitation  
Precipitation 0.00 in - - ()
Sea Level Pressure  
Sea Level Pressure 30.22 in    
Wind  
Wind Speed 7 mph (South)    
Max Wind Speed 26 mph    
Max Gust Speed 31 mph    
Visibility 10 miles    
Events      
Averages and records for this station are not official NWS values.
T = Trace of Precipitation, MM = Missing Value Source: NWS Daily Summary

Daily Weather History Graph

Daily Weather History Graph

Search for Another Location

Airport:

Trip Planner

Search our weather history database for the weather conditions in past years. The results will help you decide how hot, cold, wet, or windy it might be!

Date:

Astronomy

Jan. 03, 2014 Rise Set
Actual Time 7:42 AM CST 5:56 PM CST
Civil Twilight 7:16 AM CST 6:22 PM CST
Nautical Twilight 6:46 AM CST 6:52 PM CST
Astronomical Twilight 6:17 AM CST 7:21 PM CST
Moon 9:21 AM CST (1/3) 8:54 PM CST (1/3)
Length of Visible Light 11h 06m
Length of Day
10h 13m
Waxing Crescent, 8% of the Moon is Illuminated
Jan 3
Waxing Crescent
Jan 7
First Quarter
Jan 15
Full
Jan 23
Last Quarter
Jan 30
New

Hourly Weather History & Observations

Time (CST) Temp. Windchill Dew Point Humidity Pressure Visibility Wind Dir Wind Speed Gust Speed Precip Events Conditions
12:15 AM 32.0 °F - 24.8 °F 75% 30.39 in 10.0 mi Calm Calm - N/A   Clear
12:35 AM 30.2 °F - 23.0 °F 75% 30.39 in 10.0 mi Calm Calm - N/A   Clear
12:55 AM 28.4 °F - 21.2 °F 74% 30.39 in 10.0 mi Calm Calm - N/A   Clear
1:15 AM 28.4 °F - 23.0 °F 80% 30.39 in 10.0 mi Calm Calm - N/A   Clear
1:35 AM 26.6 °F - 23.0 °F 86% 30.38 in 10.0 mi Calm Calm - N/A   Clear
1:55 AM 26.6 °F - 21.2 °F 80% 30.37 in 10.0 mi Calm Calm - N/A   Clear
2:15 AM 26.6 °F - 23.0 °F 86% 30.37 in 10.0 mi Calm Calm - N/A   Clear
2:35 AM 26.6 °F - 21.2 °F 80% 30.36 in 10.0 mi Calm Calm - N/A   Clear
2:55 AM 24.8 °F - 19.4 °F 80% 30.36 in 10.0 mi Calm Calm - N/A   Clear
3:15 AM 24.8 °F - 21.2 °F 86% 30.36 in 10.0 mi Calm Calm - N/A   Clear
3:35 AM 23.0 °F - 19.4 °F 86% 30.36 in 10.0 mi Calm Calm - N/A   Clear
3:55 AM 23.0 °F - 21.2 °F 93% 30.35 in 10.0 mi Calm Calm - N/A   Clear
4:15 AM 24.8 °F - 21.2 °F 86% 30.35 in 10.0 mi Calm Calm - N/A   Clear
4:35 AM 23.0 °F - 19.4 °F 86% 30.35 in 10.0 mi Calm Calm - N/A   Clear
4:55 AM 23.0 °F 18.4 °F 19.4 °F 86% 30.33 in 10.0 mi SE 3.5 mph - N/A   Clear
5:15 AM 24.8 °F - 21.2 °F 86% 30.33 in 10.0 mi Calm Calm - N/A   Clear
5:35 AM 23.0 °F - 19.4 °F 86% 30.33 in 10.0 mi Calm Calm - N/A   Clear
5:55 AM 21.2 °F 16.4 °F 19.4 °F 93% 30.33 in 10.0 mi South 3.5 mph - N/A   Clear
6:15 AM 23.0 °F - 21.2 °F 93% 30.32 in 10.0 mi Calm Calm - N/A   Clear
6:35 AM 21.2 °F 16.4 °F 17.6 °F 86% 30.32 in 10.0 mi SSW 3.5 mph - N/A   Clear
6:55 AM 23.0 °F 15.8 °F 19.4 °F 86% 30.31 in 10.0 mi South 5.8 mph - N/A   Clear
7:15 AM 30.2 °F 22.6 °F 24.8 °F 80% 30.31 in 10.0 mi SSW 8.1 mph - N/A   Clear
7:35 AM 30.2 °F 23.4 °F 24.8 °F 80% 30.31 in 10.0 mi SSW 6.9 mph - N/A   Clear
7:55 AM 30.2 °F 23.4 °F 24.8 °F 80% 30.32 in 10.0 mi SSW 6.9 mph - N/A   Clear
8:15 AM 32.0 °F 25.6 °F 24.8 °F 75% 30.32 in 10.0 mi SSW 6.9 mph - N/A   Clear
8:35 AM 32.0 °F 25.6 °F 26.6 °F 80% 30.33 in 10.0 mi SSW 6.9 mph - N/A   Clear
8:55 AM 33.8 °F 26.4 °F 26.6 °F 75% 30.33 in 10.0 mi South 9.2 mph - N/A   Clear
9:15 AM 35.6 °F 26.6 °F 26.6 °F 70% 30.33 in 10.0 mi South 13.8 mph 17.3 mph N/A   Clear
9:35 AM 37.4 °F 28.9 °F 26.6 °F 65% 30.33 in 10.0 mi South 13.8 mph 23.0 mph N/A   Clear
9:55 AM 39.2 °F 30.8 °F 26.6 °F 61% 30.33 in 10.0 mi South 15.0 mph 20.7 mph N/A   Clear
10:15 AM 41.0 °F 32.5 °F 26.6 °F 57% 30.33 in 10.0 mi South 17.3 mph 25.3 mph N/A   Clear
10:35 AM 42.8 °F 33.3 °F 26.6 °F 53% 30.33 in 10.0 mi South 24.2 mph 31.1 mph N/A   Clear
10:55 AM 44.6 °F 35.3 °F 26.6 °F 49% 30.32 in 10.0 mi South 26.5 mph 31.1 mph N/A   Clear
11:15 AM 46.4 °F 39.0 °F 26.6 °F 46% 30.30 in 10.0 mi South 19.6 mph 29.9 mph N/A   Clear
11:35 AM 46.4 °F 39.0 °F 26.6 °F 46% 30.30 in 10.0 mi SSW 19.6 mph 25.3 mph N/A   Clear
11:55 AM 46.4 °F 38.7 °F 24.8 °F 43% 30.27 in 10.0 mi South 20.7 mph 26.5 mph N/A   Clear
12:15 PM 50.0 °F - 24.8 °F 37% 30.26 in 10.0 mi South 20.7 mph 27.6 mph N/A   Clear
12:35 PM 50.0 °F - 24.8 °F 37% 30.24 in 10.0 mi South 20.7 mph 24.2 mph N/A   Clear
12:55 PM 51.8 °F - 24.8 °F 35% 30.22 in 10.0 mi South 20.7 mph 26.5 mph N/A   Clear
1:15 PM 51.8 °F - 24.8 °F 35% 30.20 in 10.0 mi South 17.3 mph 24.2 mph N/A   Clear
1:35 PM 51.8 °F - 21.2 °F 30% 30.19 in 10.0 mi SSW 19.6 mph 26.5 mph N/A   Clear
1:55 PM 51.8 °F - 23.0 °F 33% 30.17 in 10.0 mi South 18.4 mph 25.3 mph N/A   Clear
2:15 PM 51.8 °F - 23.0 °F 33% 30.16 in 10.0 mi South 17.3 mph 26.5 mph N/A   Clear
2:35 PM 53.6 °F - 23.0 °F 30% 30.15 in 10.0 mi South 25.3 mph - N/A   Clear
2:55 PM 53.6 °F - 23.0 °F 30% 30.13 in 10.0 mi South 16.1 mph 24.2 mph N/A   Clear
3:15 PM 53.6 °F - 23.0 °F 30% 30.12 in 10.0 mi South 19.6 mph 28.8 mph N/A   Clear
3:35 PM 53.6 °F - 23.0 °F 30% 30.12 in 10.0 mi South 26.5 mph - N/A   Clear
3:55 PM 53.6 °F - 23.0 °F 30% 30.11 in 10.0 mi SSW 19.6 mph 28.8 mph N/A   Clear
4:15 PM 53.6 °F - 23.0 °F 30% 30.10 in 10.0 mi South 20.7 mph 28.8 mph N/A   Clear
4:35 PM 51.8 °F - 23.0 °F 33% 30.10 in 10.0 mi South 21.9 mph 27.6 mph N/A   Clear
4:55 PM 51.8 °F - 21.2 °F 30% 30.09 in 10.0 mi South 20.7 mph 26.5 mph N/A   Clear
5:15 PM 51.8 °F - 21.2 °F 30% 30.10 in 10.0 mi South 19.6 mph 25.3 mph N/A   Clear
5:35 PM 50.0 °F - 21.2 °F 32% 30.10 in 10.0 mi South 18.4 mph 25.3 mph N/A   Clear
5:55 PM 48.2 °F - 21.2 °F 34% 30.10 in 10.0 mi South 13.8 mph - N/A   Clear
6:15 PM 46.4 °F 41.5 °F 21.2 °F 37% 30.09 in 10.0 mi South 10.4 mph - N/A   Clear
6:35 PM 44.6 °F 38.4 °F 21.2 °F 39% 30.09 in 10.0 mi South 12.7 mph 17.3 mph N/A   Clear
6:55 PM 44.6 °F 38.4 °F 21.2 °F 39% 30.09 in 10.0 mi South 12.7 mph - N/A   Clear
7:15 PM 44.6 °F 38.4 °F 21.2 °F 39% 30.10 in 10.0 mi South 12.7 mph 18.4 mph N/A   Clear
7:35 PM 42.8 °F 37.0 °F 19.4 °F 39% 30.09 in 10.0 mi South 10.4 mph - N/A   Clear
7:55 PM 42.8 °F 36.2 °F 19.4 °F 39% 30.09 in 10.0 mi South 12.7 mph 16.1 mph N/A   Clear
8:15 PM 42.8 °F 36.6 °F 19.4 °F 39% 30.09 in 10.0 mi South 11.5 mph - N/A   Clear
8:35 PM 42.8 °F 37.0 °F 19.4 °F 39% 30.09 in 10.0 mi South 10.4 mph - N/A   Clear
8:55 PM 41.0 °F 33.9 °F 19.4 °F 42% 30.09 in 10.0 mi South 12.7 mph - N/A   Clear
9:15 PM 41.0 °F 33.9 °F 19.4 °F 42% 30.09 in 10.0 mi South 12.7 mph - N/A   Clear
9:35 PM 41.0 °F 32.8 °F 19.4 °F 42% 30.07 in 10.0 mi South 16.1 mph 20.7 mph N/A   Clear
9:55 PM 41.0 °F 33.1 °F 19.4 °F 42% 30.07 in 10.0 mi South 15.0 mph - N/A   Clear
10:15 PM 41.0 °F 33.9 °F 19.4 °F 42% 30.05 in 10.0 mi South 12.7 mph 21.9 mph N/A   Clear
10:35 PM 41.0 °F 33.1 °F 19.4 °F 42% 30.05 in 10.0 mi South 15.0 mph 20.7 mph N/A   Clear
10:55 PM 41.0 °F 33.9 °F 17.6 °F 39% 30.05 in 10.0 mi South 12.7 mph 19.6 mph N/A   Clear
11:15 PM 41.0 °F 33.1 °F 19.4 °F 42% 30.05 in 10.0 mi South 15.0 mph 20.7 mph N/A   Clear
11:35 PM 41.0 °F 33.1 °F 19.4 °F 42% 30.04 in 10.0 mi South 15.0 mph 20.7 mph N/A   Clear
11:55 PM 41.0 °F 32.8 °F 21.2 °F 45% 30.04 in 10.0 mi SSW 16.1 mph 23.0 mph N/A   Clear